Date String (YYYY-MM-DD hh:mm:ss) UTC,Instrument flags,Ambient pressure (hPa),Sample flow (lpm),Bypass flow (lpm),Sample temperature (°C),Ambient temperature (°C),ASC tube jacket temperature (°C),LED temperature (°C),Box temperature (°C),Sample RH (%),Span deviation,Mass concentration (μg/m³),Mass concentration (μg/m³),Mass concentration (μg/m³)
DateTimeUTC,F1_M11,P_M11,Q1_M11,Q2_M11,T1_M11,T2_M11,T3_M11,T4_M11,T5_M11,U1_M11,ZSPAN_M11,X0_M11,X2_M11,X1_M11
2022-06-11 10:00:00,,0824.5,5.00,0.00,29.6,28.7,00.0,38.5,31.5,15.6,0000.0,0013.89,0005.37,0003.60
2022-06-11 10:01:00,,0824.5,5.00,0.00,29.6,28.7,00.0,38.5,31.5,15.4,0000.0,0013.27,0005.27,0003.59
2022-06-11 10:02:00,,0824.5,5.00,0.00,29.6,28.8,00.0,38.5,31.5,15.8,0000.0,0012.46,0005.23,0003.58
2022-06-11 10:03:00,,0824.5,4.99,0.00,29.7,28.8,00.0,38.5,31.5,15.6,0000.0,0012.54,0005.24,0003.57
2022-06-11 10:04:00,,0824.4,5.00,0.00,29.7,28.8,00.0,38.5,31.6,15.6,0000.0,0013.00,0005.25,0003.56
2022-06-11 10:05:00,,0824.5,5.00,0.00,29.7,28.8,00.0,38.5,31.6,15.7,0000.0,0013.12,0005.28,0003.56
2022-06-11 10:06:00,,0824.5,5.01,0.00,29.7,28.8,00.0,38.5,31.6,15.7,0000.0,0013.00,0005.33,0003.58
2022-06-11 10:07:00,,0824.5,4.99,0.00,29.7,28.8,00.0,38.5,31.6,15.7,0000.0,0012.76,0005.32,0003.59
2022-06-11 10:08:00,,0824.4,4.99,0.00,29.7,28.8,00.0,38.6,31.6,15.5,0000.0,0013.17,0005.37,0003.60
2022-06-11 10:09:00,,0824.4,5.00,0.00,29.7,28.9,00.0,38.6,31.7,15.2,0000.0,0012.81,0005.30,0003.58
2022-06-11 10:10:00,,0824.5,5.01,0.00,29.8,28.9,00.0,38.6,31.7,15.1,0000.0,0012.75,0005.27,0003.56
2022-06-11 10:11:00,,0824.6,5.01,0.00,29.8,28.9,00.0,38.6,31.7,15.1,0000.0,0012.98,0005.33,0003.55
2022-06-11 10:12:00,,0824.6,5.01,0.00,29.8,28.9,00.0,38.6,31.7,14.8,0000.0,0013.59,0005.40,0003.55
2022-06-11 10:13:00,,0824.6,5.00,0.00,29.8,28.9,00.0,38.6,31.7,14.8,0000.0,0013.59,0005.39,0003.54
2022-06-11 10:14:00,,0824.4,5.00,0.00,29.8,28.9,00.0,38.6,31.7,14.9,0000.0,0013.35,0005.34,0003.53
2022-06-11 10:15:00,,0824.4,5.00,0.00,29.8,28.9,00.0,38.6,31.7,15.4,0000.0,0012.72,0005.25,0003.53
2022-06-11 10:16:00,,0824.7,5.00,0.00,29.8,28.9,00.0,38.7,31.7,15.4,0000.0,0012.44,0005.19,0003.50
2022-06-11 10:17:00,,0824.4,5.00,0.00,29.8,28.9,00.0,38.7,31.8,15.6,0000.0,0012.61,0005.15,0003.49
2022-06-11 10:18:00,,0824.5,5.01,0.00,29.8,29.0,00.0,38.7,31.8,15.6,0000.0,0012.51,0005.13,0003.47
2022-06-11 10:19:00,,0824.4,5.01,0.00,29.9,29.0,00.0,38.7,31.7,15.7,0000.0,0012.04,0005.04,0003.46
2022-06-11 10:20:00,,0824.5,5.00,0.00,29.9,29.0,00.0,38.7,31.8,15.5,0000.0,0012.38,0005.06,0003.46
2022-06-11 10:21:00,,0824.4,4.99,0.00,29.9,29.0,00.0,38.7,31.7,15.4,0000.0,0012.54,0005.10,0003.47
2022-06-11 10:22:00,,0824.4,5.00,0.00,29.9,29.0,00.0,38.7,31.8,15.3,0000.0,0012.60,0005.11,0003.48
2022-06-11 10:23:00,,0824.8,5.00,0.00,29.9,29.0,00.0,38.7,31.8,15.2,0000.0,0012.03,0005.06,0003.49
2022-06-11 10:24:00,,0824.7,4.99,0.00,29.9,29.0,00.0,38.8,31.8,15.1,0000.0,0012.34,0005.10,0003.50
2022-06-11 10:25:00,,0824.8,5.02,0.00,29.9,29.0,00.0,38.8,31.8,15.3,0000.0,0012.41,0005.14,0003.51
2022-06-11 10:26:00,,0824.7,5.00,0.00,29.9,29.1,00.0,38.8,31.8,15.3,0000.0,0012.43,0005.18,0003.51
2022-06-11 10:27:00,,0824.5,4.98,0.00,29.9,29.0,00.0,38.8,31.8,15.4,0000.0,0012.81,0005.27,0003.53
2022-06-11 10:28:00,,0824.5,4.99,0.00,29.9,28.5,00.0,38.7,31.7,15.5,0000.0,0012.98,0005.32,0003.54
2022-06-11 10:29:00,,0824.4,5.01,0.00,29.8,27.7,00.0,38.7,31.5,15.8,0000.0,0013.33,0005.37,0003.55
2022-06-11 10:30:00,,0824.7,4.99,0.00,29.8,27.5,00.0,38.6,31.4,15.9,0000.0,0013.66,0005.44,0003.55
2022-06-11 10:31:00,,0824.4,5.01,0.00,29.7,27.4,00.0,38.6,31.3,16.0,0000.0,0013.82,0005.45,0003.55
2022-06-11 10:32:00,,0824.8,4.99,0.00,29.6,27.5,00.0,38.6,31.3,15.9,0000.0,0013.88,0005.46,0003.55
2022-06-11 10:33:00,,0824.5,4.99,0.00,29.6,27.6,00.0,38.6,31.3,15.9,0000.0,0013.76,0005.44,0003.54
2022-06-11 10:34:00,,0824.5,5.00,0.00,29.5,27.7,00.0,38.5,31.3,16.0,0000.0,0013.92,0005.46,0003.53
2022-06-11 10:35:00,,0824.6,5.00,0.00,29.5,27.8,00.0,38.5,31.3,16.0,0000.0,0014.37,0005.45,0003.52
2022-06-11 10:36:00,,0824.5,5.00,0.00,29.5,27.9,00.0,38.5,31.3,16.0,0000.0,0014.97,0005.49,0003.51
2022-06-11 10:37:00,,0824.5,5.01,0.00,29.5,28.0,00.0,38.5,31.3,16.1,0000.0,0015.03,0005.48,0003.51
2022-06-11 10:38:00,,0824.5,5.00,0.00,29.5,28.1,00.0,38.5,31.3,16.2,0000.0,0014.99,0005.46,0003.51
2022-06-11 10:39:00,,0824.8,4.99,0.00,29.5,28.2,00.0,38.5,31.4,16.2,0000.0,0015.41,0005.42,0003.50
2022-06-11 10:40:00,,0824.5,5.01,0.00,29.5,28.3,00.0,38.5,31.4,16.2,0000.0,0015.15,0005.42,0003.49
2022-06-11 10:41:00,,0824.6,5.00,0.00,29.5,28.3,00.0,38.5,31.4,16.2,0000.0,0015.43,0005.36,0003.47
2022-06-11 10:42:00,,0824.6,5.00,0.00,29.5,28.4,00.0,38.5,31.4,16.2,0000.0,0015.29,0005.32,0003.47
2022-06-11 10:43:00,,0824.7,5.00,0.00,29.5,28.4,00.0,38.5,31.4,16.3,0000.0,0014.79,0005.29,0003.47
2022-06-11 10:44:00,,0824.7,5.00,0.00,29.5,28.5,00.0,38.5,31.4,16.7,0000.0,0014.81,0005.27,0003.48
2022-06-11 10:45:00,,0824.9,5.00,0.00,29.5,28.5,00.0,38.5,31.4,16.6,0000.0,0014.82,0005.30,0003.48
2022-06-11 10:46:00,,0824.9,5.00,0.00,29.6,28.5,00.0,38.5,31.4,16.4,0000.0,0015.27,0005.32,0003.50
2022-06-11 10:47:00,,0824.7,4.99,0.00,29.6,28.6,00.0,38.5,31.4,16.4,0000.0,0015.13,0005.39,0003.52
2022-06-11 10:48:00,,0824.8,5.01,0.00,29.6,28.6,00.0,38.5,31.5,16.3,0000.0,0015.58,0005.46,0003.52
2022-06-11 10:49:00,,0824.5,5.00,0.00,29.6,28.6,00.0,38.5,31.5,16.2,0000.0,0016.18,0005.51,0003.52
2022-06-11 10:50:00,,0824.5,5.00,0.00,29.6,28.6,00.0,38.5,31.5,16.1,0000.0,0016.09,0005.46,0003.52
2022-06-11 10:51:00,,0824.7,5.00,0.00,29.6,28.7,00.0,38.5,31.5,16.1,0000.0,0016.53,0005.45,0003.53
2022-06-11 10:52:00,,0824.6,5.00,0.00,29.6,28.7,00.0,38.5,31.5,16.0,0000.0,0016.37,0005.48,0003.54
2022-06-11 10:53:00,,0824.8,5.00,0.00,29.7,28.7,00.0,38.5,31.5,15.7,0000.0,0016.08,0005.53,0003.55
2022-06-11 10:54:00,,0824.5,5.00,0.00,29.7,28.7,00.0,38.5,31.6,15.5,0000.0,0016.09,0005.50,0003.54
2022-06-11 10:55:00,,0824.7,5.00,0.00,29.7,28.7,00.0,38.5,31.6,15.6,0000.0,0016.17,0005.52,0003.54
2022-06-11 10:56:00,,0824.6,4.99,0.00,29.7,28.8,00.0,38.5,31.6,15.9,0000.0,0016.34,0005.48,0003.54
2022-06-11 10:57:00,,0824.6,4.99,0.00,29.7,28.8,00.0,38.6,31.6,16.0,0000.0,0015.71,0005.44,0003.54
2022-06-11 10:58:00,,0824.6,5.00,0.00,29.7,28.8,00.0,38.6,31.6,16.0,0000.0,0014.76,0005.36,0003.54
2022-06-11 10:59:00,,0824.6,5.00,0.00,29.7,28.8,00.0,38.6,31.6,16.0,0000.0,0013.99,0005.24,0003.54
